Location: Unspecified
(39.0670°S, 0.0000°E)
Time: 18:11:00
(UTC+00:00)

Envisat - Pass Details

Date: 04 July 2019
Orbit: 764 x 766 km, 98.1° (Epoch: 18 July)

Event Time Altitude Azimuth Distance (km) Brightness Sun altitude
Exits shadow 20:43:12 11° 279° (W) 2,265 6.0 -44.5°
Drops below altitude 10° 20:43:21 10° 280° (W) 2,300 6.0 -44.6°
Sets 20:46:31 0° 301° (WNW) 3,237 6.8 -45.2°
